QFA55 PAJN-PANC

Flight info

Callsign QFA55
Flight time 1h 34m
Altitude 32000
Route ASORT3 ASORT J541 YAK J501 JOH WITTI5
Aircraft B738/M-SDE2E3FGHIRWXY/LB1

Departure

Time 2026-04-22 10:10
Airport Juneau International Airport (PAJN)

Arrival

Time 2026-04-22 11:44
Airport Ted Stevens Anchorage International Airport (PANC)
Time Latitude Longitude Altitude Speed Heading
2026-04-22 09:18 58.35878 -134.58473 30 ft 0 kts 103°
2026-04-22 09:43 58.35846 -134.58304 30 ft 0 kts
2026-04-22 09:58 58.35844 -134.58304 30 ft 3 kts 360°
2026-04-22 09:59 58.35820 -134.58304 30 ft 3 kts
2026-04-22 09:59 58.35796 -134.58305 30 ft 3 kts
2026-04-22 09:59 58.35778 -134.58291 30 ft 3 kts 296°
2026-04-22 09:59 58.35774 -134.58257 30 ft 0 kts 280°
2026-04-22 10:00 58.35774 -134.58258 30 ft 0 kts 280°
2026-04-22 10:03 58.35774 -134.58270 30 ft 5 kts 261°
2026-04-22 10:04 58.35719 -134.58295 30 ft 12 kts 148°
2026-04-22 10:04 58.35681 -134.58132 30 ft 16 kts 105°
2026-04-22 10:04 58.35653 -134.57936 30 ft 16 kts 105°
2026-04-22 10:04 58.35624 -134.57721 30 ft 18 kts 104°
2026-04-22 10:05 58.35590 -134.57475 30 ft 20 kts 105°
2026-04-22 10:05 58.35551 -134.57197 30 ft 23 kts 105°
2026-04-22 10:05 58.35508 -134.56884 30 ft 25 kts 106°
2026-04-22 10:05 58.35462 -134.56564 30 ft 25 kts 104°
2026-04-22 10:06 58.35418 -134.56245 30 ft 25 kts 105°
2026-04-22 10:06 58.35372 -134.55924 30 ft 25 kts 105°
2026-04-22 10:06 58.35335 -134.55662 30 ft 8 kts 105°
2026-04-22 10:06 58.35300 -134.55554 30 ft 11 kts 154°
2026-04-22 10:07 58.35282 -134.55551 30 ft 0 kts 191°
2026-04-22 10:07 58.35279 -134.55552 30 ft 1 kts 191°
2026-04-22 10:07 58.35252 -134.55546 30 ft 6 kts 160°
2026-04-22 10:07 58.35213 -134.55567 30 ft 7 kts 259°
2026-04-22 10:08 58.35214 -134.55583 30 ft 0 kts 281°
2026-04-22 10:08 58.35214 -134.55591 30 ft 2 kts 281°
2026-04-22 10:09 58.35231 -134.55729 30 ft 29 kts 285°
2026-04-22 10:09 58.35336 -134.56468 30 ft 86 kts 284°
2026-04-22 10:09 58.35540 -134.57903 30 ft 136 kts 284°
2026-04-22 10:09 58.35814 -134.59880 160 ft 164 kts 283°
2026-04-22 10:10 58.35965 -134.62060 667 ft 168 kts 276°
2026-04-22 10:10 58.36026 -134.64297 1211 ft 177 kts 270°
2026-04-22 10:10 58.36003 -134.66782 1575 ft 194 kts 268°
2026-04-22 10:10 58.35927 -134.69384 2172 ft 202 kts 268°
2026-04-22 10:11 58.35903 -134.72222 2513 ft 225 kts 271°
2026-04-22 10:11 58.35927 -134.75315 2992 ft 242 kts 271°
2026-04-22 10:11 58.35970 -134.78570 3685 ft 249 kts 271°
2026-04-22 10:11 58.36007 -134.81894 4489 ft 252 kts 270°
2026-04-22 10:12 58.36031 -134.85283 5336 ft 254 kts 270°
2026-04-22 10:12 58.36047 -134.88650 6162 ft 255 kts 270°
2026-04-22 10:12 58.36062 -134.92029 6956 ft 256 kts 270°
2026-04-22 10:12 58.36077 -134.95433 7722 ft 258 kts 271°
2026-04-22 10:13 58.36091 -134.98864 8483 ft 260 kts 271°
2026-04-22 10:13 58.36105 -135.02322 9212 ft 263 kts 271°
2026-04-22 10:13 58.36121 -135.05796 9983 ft 263 kts 272°
2026-04-22 10:13 58.36136 -135.09354 10413 ft 277 kts 273°
2026-04-22 10:14 58.36153 -135.13139 10706 ft 294 kts 272°
2026-04-22 10:14 58.36167 -135.17131 11082 ft 307 kts 272°
2026-04-22 10:14 58.36177 -135.21221 11748 ft 310 kts 273°
2026-04-22 10:14 58.36184 -135.25337 12511 ft 311 kts 274°
2026-04-22 10:15 58.36192 -135.29468 13257 ft 313 kts 274°
2026-04-22 10:15 58.36202 -135.32973 13397 ft 324 kts 274°
2026-04-22 10:15 58.36204 -135.37210 14477 ft 318 kts 274°
2026-04-22 10:15 58.36207 -135.41413 15296 ft 317 kts 275°
2026-04-22 10:16 58.36212 -135.45611 16062 ft 318 kts 275°
2026-04-22 10:16 58.36222 -135.49824 16801 ft 319 kts 275°
2026-04-22 10:16 58.36236 -135.54063 17515 ft 321 kts 276°
2026-04-22 10:16 58.36248 -135.58320 18212 ft 323 kts 276°
2026-04-22 10:17 58.36257 -135.62612 18861 ft 326 kts 276°
2026-04-22 10:17 58.36261 -135.66944 19504 ft 328 kts 276°
2026-04-22 10:17 58.36263 -135.71313 20107 ft 332 kts 276°
2026-04-22 10:17 58.36267 -135.75726 20704 ft 335 kts 276°
2026-04-22 10:18 58.36433 -135.80146 21169 ft 335 kts 286°
2026-04-22 10:18 58.37120 -135.84353 21732 ft 332 kts 297°
2026-04-22 10:18 58.38242 -135.88181 22335 ft 332 kts 303°
2026-04-22 10:18 58.39450 -135.91946 22880 ft 334 kts 303°
2026-04-22 10:19 58.40681 -135.95718 23415 ft 336 kts 303°
2026-04-22 10:19 58.41937 -135.99566 23917 ft 339 kts 303°
2026-04-22 10:19 58.43183 -136.03409 24387 ft 342 kts 303°
2026-04-22 10:19 58.44431 -136.07291 24859 ft 344 kts 303°
2026-04-22 10:20 58.45684 -136.11198 25310 ft 346 kts 303°
2026-04-22 10:20 58.46946 -136.15137 25763 ft 348 kts 303°
2026-04-22 10:20 58.48213 -136.19091 26202 ft 350 kts 303°
2026-04-22 10:20 58.49486 -136.23072 26612 ft 352 kts 303°
2026-04-22 10:21 58.50764 -136.27073 27019 ft 354 kts 303°
2026-04-22 10:21 58.52049 -136.31098 27392 ft 356 kts 303°
2026-04-22 10:21 58.53340 -136.35150 27762 ft 357 kts 303°
2026-04-22 10:21 58.54635 -136.39223 28127 ft 359 kts 303°
2026-04-22 10:22 58.55933 -136.43314 28465 ft 360 kts 303°
2026-04-22 10:22 58.57232 -136.47419 28798 ft 362 kts 303°
2026-04-22 10:22 58.58539 -136.51555 29110 ft 363 kts 303°
2026-04-22 10:22 58.59852 -136.55719 29281 ft 367 kts 303°
2026-04-22 10:23 58.61179 -136.59929 29496 ft 370 kts 303°
2026-04-22 10:23 58.62509 -136.64160 29800 ft 370 kts 302°
2026-04-22 10:23 58.63834 -136.68383 30103 ft 369 kts 303°
2026-04-22 10:23 58.65157 -136.72606 30415 ft 369 kts 302°
2026-04-22 10:24 58.66474 -136.76819 30709 ft 368 kts 302°
2026-04-22 10:24 58.67789 -136.81032 30996 ft 367 kts 302°
2026-04-22 10:24 58.69101 -136.85243 31296 ft 366 kts 302°
2026-04-22 10:24 58.70405 -136.89435 31579 ft 365 kts 302°
2026-04-22 10:25 58.71705 -136.93623 31849 ft 364 kts 302°
2026-04-22 10:25 58.73000 -136.97802 32114 ft 363 kts 302°
2026-04-22 10:25 58.74297 -137.01994 32236 ft 365 kts 302°
2026-04-22 10:25 58.75597 -137.06204 32241 ft 366 kts 302°
2026-04-22 10:26 58.78208 -137.14684 32249 ft 365 kts 302°
2026-04-22 10:26 58.80782 -137.23077 32247 ft 362 kts 302°
2026-04-22 10:27 58.83331 -137.31410 32249 ft 360 kts 302°
2026-04-22 10:27 58.85867 -137.39736 32249 ft 359 kts 301°
2026-04-22 10:28 58.88397 -137.48069 32249 ft 359 kts 301°
2026-04-22 10:28 58.90921 -137.56413 32250 ft 359 kts 301°
2026-04-22 10:29 58.93438 -137.64765 32250 ft 359 kts 301°
2026-04-22 10:29 58.95948 -137.73135 32250 ft 359 kts 301°
2026-04-22 10:30 58.98455 -137.81510 32250 ft 359 kts 301°
2026-04-22 10:30 59.00958 -137.89893 32251 ft 358 kts 301°
2026-04-22 10:31 59.03445 -137.98271 32251 ft 358 kts 301°
2026-04-22 10:31 59.05930 -138.06667 32252 ft 359 kts 301°
2026-04-22 10:32 59.08417 -138.15095 32253 ft 359 kts 301°
2026-04-22 10:32 59.10897 -138.23537 32253 ft 359 kts 301°
2026-04-22 10:33 59.13370 -138.31984 32253 ft 358 kts 301°
2026-04-22 10:33 59.15830 -138.40415 32254 ft 358 kts 300°
2026-04-22 10:34 59.18287 -138.48871 32255 ft 358 kts 300°
2026-04-22 10:34 59.20341 -138.55962 32253 ft 358 kts 300°
2026-04-22 10:35 59.22787 -138.64435 32256 ft 358 kts 300°
2026-04-22 10:35 59.25227 -138.72919 32257 ft 358 kts 300°
2026-04-22 10:36 59.27664 -138.81421 32257 ft 358 kts 300°
2026-04-22 10:36 59.30092 -138.89926 32258 ft 358 kts 300°
2026-04-22 10:37 59.33733 -139.02740 32259 ft 359 kts 300°
2026-04-22 10:38 59.36158 -139.11314 32256 ft 359 kts 300°
2026-04-22 10:38 59.38574 -139.19885 32256 ft 358 kts 300°
2026-04-22 10:39 59.40976 -139.28443 32257 ft 358 kts 300°
2026-04-22 10:39 59.43378 -139.37031 32258 ft 358 kts 299°
2026-04-22 10:40 59.45774 -139.45628 32259 ft 358 kts 299°
2026-04-22 10:40 59.48159 -139.54230 32259 ft 358 kts 299°
2026-04-22 10:41 59.50539 -139.62838 32260 ft 357 kts 299°
2026-04-22 10:41 59.52321 -139.71993 32263 ft 359 kts 291°
2026-04-22 10:42 59.53898 -139.81340 32259 ft 359 kts 291°
2026-04-22 10:42 59.55465 -139.90689 32259 ft 359 kts 291°
2026-04-22 10:43 59.57035 -140.00013 32259 ft 358 kts 291°
2026-04-22 10:43 59.58597 -140.09367 32258 ft 359 kts 291°
2026-04-22 10:44 59.60154 -140.18755 32256 ft 360 kts 291°
2026-04-22 10:44 59.61706 -140.28153 32254 ft 359 kts 290°
2026-04-22 10:45 59.63252 -140.37558 32253 ft 360 kts 290°
2026-04-22 10:45 59.64794 -140.46993 32250 ft 361 kts 290°
2026-04-22 10:46 59.66330 -140.56441 32248 ft 361 kts 290°
2026-04-22 10:46 59.67863 -140.65920 32245 ft 362 kts 290°
2026-04-22 10:47 59.69391 -140.75421 32241 ft 362 kts 290°
2026-04-22 10:47 59.70915 -140.84948 32239 ft 363 kts 290°
2026-04-22 10:48 59.72437 -140.94512 32236 ft 364 kts 290°
2026-04-22 10:48 59.73952 -141.04088 32232 ft 364 kts 290°
2026-04-22 10:49 59.75460 -141.13674 32229 ft 365 kts 289°
2026-04-22 10:49 59.76965 -141.23294 32226 ft 365 kts 289°
2026-04-22 10:50 59.78462 -141.32910 32223 ft 364 kts 289°
2026-04-22 10:50 59.79950 -141.42528 32220 ft 364 kts 289°
2026-04-22 10:51 59.81431 -141.52155 32218 ft 364 kts 289°
2026-04-22 10:51 59.82905 -141.61789 32215 ft 364 kts 289°
2026-04-22 10:52 59.84371 -141.71421 32212 ft 364 kts 289°
2026-04-22 10:52 59.85829 -141.81061 32210 ft 364 kts 289°
2026-04-22 10:53 59.87280 -141.90710 32206 ft 364 kts 289°
2026-04-22 10:53 59.88725 -142.00372 32226 ft 364 kts 288°
2026-04-22 10:54 59.90163 -142.10038 32239 ft 364 kts 288°
2026-04-22 10:54 59.91594 -142.19718 32241 ft 364 kts 288°
2026-04-22 10:55 59.93020 -142.29419 32241 ft 365 kts 288°
2026-04-22 10:55 59.94442 -142.39154 32241 ft 365 kts 288°
2026-04-22 10:56 59.95858 -142.48904 32241 ft 366 kts 288°
2026-04-22 10:56 59.97270 -142.58679 32241 ft 367 kts 288°
2026-04-22 10:57 59.98677 -142.68489 32239 ft 368 kts 288°
2026-04-22 10:57 60.00084 -142.78349 32239 ft 368 kts 288°
2026-04-22 10:58 60.01467 -142.88106 32240 ft 363 kts 288°
2026-04-22 10:58 60.02840 -142.97846 32240 ft 364 kts 288°
2026-04-22 10:59 60.04210 -143.07621 32240 ft 365 kts 287°
2026-04-22 10:59 60.05572 -143.17410 32240 ft 366 kts 287°
2026-04-22 11:00 60.06931 -143.27229 32240 ft 367 kts 287°
2026-04-22 11:00 60.08288 -143.37092 32239 ft 368 kts 287°
2026-04-22 11:01 60.09650 -143.47060 32241 ft 369 kts 287°
2026-04-22 11:01 60.11001 -143.57012 32242 ft 370 kts 287°
2026-04-22 11:02 60.12347 -143.66984 32242 ft 371 kts 287°
2026-04-22 11:02 60.13688 -143.76987 32242 ft 372 kts 287°
2026-04-22 11:03 60.15025 -143.87025 32243 ft 372 kts 287°
2026-04-22 11:03 60.16355 -143.97070 32243 ft 373 kts 287°
2026-04-22 11:04 60.17673 -144.07096 32244 ft 373 kts 287°
2026-04-22 11:04 60.18999 -144.17250 32245 ft 372 kts 287°
2026-04-22 11:05 60.21396 -144.35771 32246 ft 371 kts 286°
2026-04-22 11:05 60.23979 -144.55992 32247 ft 371 kts 286°
2026-04-22 11:06 60.26495 -144.75964 32248 ft 369 kts 285°
2026-04-22 11:06 60.28994 -144.96065 32256 ft 370 kts 285°
2026-04-22 11:07 60.31481 -145.16345 32257 ft 371 kts 285°
2026-04-22 11:07 60.33036 -145.29212 32259 ft 372 kts 285°
2026-04-22 11:08 60.34054 -145.37636 32259 ft 372 kts 285°
2026-04-22 11:08 60.35271 -145.47817 32259 ft 373 kts 285°
2026-04-22 11:09 60.36480 -145.58016 32261 ft 374 kts 284°
2026-04-22 11:09 60.37686 -145.68256 32262 ft 375 kts 284°
2026-04-22 11:10 60.38886 -145.78512 32262 ft 375 kts 284°
2026-04-22 11:10 60.40080 -145.88796 32263 ft 376 kts 284°
2026-04-22 11:11 60.41275 -145.99165 32265 ft 376 kts 284°
2026-04-22 11:11 60.42453 -146.09467 32266 ft 376 kts 284°
2026-04-22 11:12 60.43624 -146.19779 32268 ft 376 kts 284°
2026-04-22 11:12 60.44785 -146.30086 32268 ft 376 kts 284°
2026-04-22 11:13 60.45937 -146.40389 32263 ft 374 kts 284°
2026-04-22 11:13 60.47077 -146.50695 32260 ft 375 kts 284°
2026-04-22 11:14 60.48601 -146.60724 32268 ft 373 kts 297°
2026-04-22 11:14 60.51569 -146.69409 32263 ft 376 kts 304°
2026-04-22 11:15 60.54712 -146.77874 32259 ft 374 kts 304°
2026-04-22 11:15 60.57830 -146.86356 32258 ft 374 kts 304°
2026-04-22 11:16 60.60929 -146.94875 32258 ft 374 kts 304°
2026-04-22 11:16 60.64025 -147.03381 32257 ft 373 kts 304°
2026-04-22 11:17 60.67079 -147.11932 32255 ft 373 kts 303°
2026-04-22 11:17 60.70091 -147.20564 32258 ft 373 kts 303°
2026-04-22 11:18 60.73116 -147.29176 32262 ft 373 kts 303°
2026-04-22 11:18 60.76137 -147.37805 32260 ft 373 kts 303°
2026-04-22 11:18 60.77646 -147.42140 32001 ft 373 kts 303°
2026-04-22 11:19 60.79139 -147.46431 31459 ft 368 kts 303°
2026-04-22 11:19 60.80611 -147.50670 30979 ft 362 kts 303°
2026-04-22 11:19 60.82054 -147.54831 30527 ft 355 kts 303°
2026-04-22 11:19 60.83472 -147.58926 30090 ft 349 kts 303°
2026-04-22 11:20 60.84866 -147.62963 29660 ft 344 kts 302°
2026-04-22 11:20 60.86234 -147.66932 29238 ft 339 kts 302°
2026-04-22 11:20 60.87584 -147.70854 28821 ft 334 kts 302°
2026-04-22 11:20 60.88913 -147.74721 28411 ft 329 kts 302°
2026-04-22 11:21 60.90238 -147.78583 28002 ft 324 kts 302°
2026-04-22 11:21 60.91526 -147.82346 27603 ft 320 kts 302°
2026-04-22 11:21 60.92795 -147.86055 27211 ft 315 kts 302°
2026-04-22 11:21 60.94046 -147.89721 26824 ft 311 kts 302°
2026-04-22 11:22 60.95280 -147.93340 26440 ft 307 kts 302°
2026-04-22 11:22 60.96496 -147.96914 26063 ft 303 kts 301°
2026-04-22 11:22 60.97704 -148.00473 25696 ft 309 kts 301°
2026-04-22 11:22 60.98953 -148.04166 25300 ft 315 kts 301°
2026-04-22 11:23 61.00199 -148.07842 24913 ft 311 kts 301°
2026-04-22 11:23 61.01429 -148.11467 24529 ft 306 kts 301°
2026-04-22 11:23 61.02640 -148.15048 24152 ft 302 kts 301°
2026-04-22 11:23 61.03832 -148.18582 23781 ft 298 kts 301°
2026-04-22 11:24 61.05004 -148.22065 23415 ft 293 kts 300°
2026-04-22 11:24 61.06159 -148.25503 23054 ft 290 kts 300°
2026-04-22 11:24 61.07333 -148.29015 22689 ft 303 kts 300°
2026-04-22 11:24 61.08525 -148.32575 22313 ft 299 kts 301°
2026-04-22 11:25 61.09700 -148.36078 21945 ft 294 kts 300°
2026-04-22 11:25 61.10853 -148.39526 21583 ft 289 kts 300°
2026-04-22 11:25 61.11985 -148.42919 21226 ft 284 kts 300°
2026-04-22 11:25 61.13095 -148.46247 20877 ft 279 kts 300°
2026-04-22 11:26 61.14102 -148.49681 20552 ft 282 kts 291°
2026-04-22 11:26 61.14819 -148.53490 20191 ft 284 kts 288°
2026-04-22 11:26 61.15498 -148.57307 19839 ft 281 kts 288°
2026-04-22 11:26 61.16163 -148.61100 19490 ft 279 kts 288°
2026-04-22 11:27 61.16820 -148.64859 19146 ft 277 kts 288°
2026-04-22 11:27 61.17474 -148.68594 18803 ft 274 kts 288°
2026-04-22 11:27 61.18123 -148.72292 18464 ft 272 kts 288°
2026-04-22 11:27 61.18768 -148.75968 18126 ft 270 kts 288°
2026-04-22 11:28 61.19406 -148.79621 17792 ft 268 kts 288°
2026-04-22 11:28 61.20038 -148.83249 17429 ft 268 kts 288°
2026-04-22 11:28 61.20673 -148.86900 17030 ft 269 kts 288°
2026-04-22 11:28 61.21308 -148.90555 16667 ft 269 kts 288°
2026-04-22 11:29 61.21940 -148.94209 16319 ft 269 kts 288°
2026-04-22 11:29 61.22578 -148.97908 15977 ft 268 kts 288°
2026-04-22 11:29 61.23207 -149.01555 15641 ft 269 kts 288°
2026-04-22 11:29 61.23829 -149.05157 15311 ft 268 kts 288°
2026-04-22 11:30 61.24384 -149.08889 14985 ft 266 kts 279°
2026-04-22 11:30 61.24642 -149.12697 14674 ft 266 kts 277°
2026-04-22 11:30 61.24879 -149.16516 14344 ft 266 kts 277°
2026-04-22 11:30 61.25108 -149.20332 14026 ft 267 kts 276°
2026-04-22 11:31 61.25336 -149.24163 13702 ft 267 kts 276°
2026-04-22 11:31 61.25564 -149.27986 13379 ft 267 kts 276°
2026-04-22 11:31 61.25790 -149.31816 13058 ft 267 kts 276°
2026-04-22 11:31 61.26017 -149.35640 12735 ft 267 kts 276°
2026-04-22 11:32 61.26244 -149.39465 12413 ft 267 kts 276°
2026-04-22 11:32 61.26472 -149.43297 12091 ft 267 kts 276°
2026-04-22 11:32 61.26696 -149.47124 11766 ft 267 kts 276°
2026-04-22 11:32 61.26917 -149.50958 11443 ft 267 kts 275°
2026-04-22 11:33 61.27136 -149.54796 11127 ft 268 kts 275°
2026-04-22 11:33 61.27353 -149.58657 10799 ft 269 kts 275°
2026-04-22 11:33 61.27572 -149.62538 10478 ft 271 kts 275°
2026-04-22 11:33 61.27793 -149.66435 10193 ft 271 kts 275°
2026-04-22 11:34 61.28054 -149.70263 10087 ft 265 kts 282°
2026-04-22 11:34 61.28785 -149.73749 9987 ft 263 kts 296°
2026-04-22 11:34 61.29720 -149.77064 9671 ft 268 kts 297°
2026-04-22 11:34 61.30693 -149.80389 9365 ft 270 kts 297°
2026-04-22 11:35 61.31678 -149.83708 9060 ft 268 kts 298°
2026-04-22 11:35 61.32654 -149.87012 8761 ft 268 kts 298°
2026-04-22 11:35 61.33616 -149.90300 8467 ft 265 kts 297°
2026-04-22 11:35 61.34653 -149.93472 8191 ft 266 kts 309°
2026-04-22 11:36 61.36099 -149.95918 7776 ft 274 kts 326°
2026-04-22 11:36 61.37980 -149.97378 6932 ft 291 kts 343°
2026-04-22 11:36 61.39913 -149.98453 6715 ft 284 kts 342°
2026-04-22 11:36 61.41758 -149.99577 6446 ft 267 kts 340°
2026-04-22 11:37 61.43510 -150.00709 6207 ft 257 kts 340°
2026-04-22 11:37 61.45178 -150.01926 5941 ft 249 kts 326°
2026-04-22 11:37 61.46377 -150.04296 5748 ft 231 kts 294°
2026-04-22 11:37 61.46754 -150.07416 5505 ft 218 kts 259°
2026-04-22 11:38 61.46243 -150.10227 5290 ft 205 kts 226°
2026-04-22 11:38 61.45247 -150.12363 5022 ft 205 kts 216°
2026-04-22 11:38 61.42648 -150.14126 4561 ft 201 kts 176°
2026-04-22 11:39 61.41277 -150.13525 4304 ft 203 kts 166°
2026-04-22 11:39 61.39919 -150.12742 4069 ft 201 kts 166°
2026-04-22 11:39 61.38569 -150.11968 4043 ft 201 kts 166°
2026-04-22 11:39 61.37217 -150.11198 3919 ft 202 kts 166°
2026-04-22 11:40 61.35864 -150.10429 3584 ft 200 kts 165°
2026-04-22 11:40 61.34532 -150.09674 3296 ft 196 kts 166°
2026-04-22 11:40 61.33241 -150.08942 3024 ft 186 kts 166°
2026-04-22 11:40 61.32043 -150.08263 2776 ft 173 kts 166°
2026-04-22 11:41 61.30912 -150.07623 2545 ft 165 kts 166°
2026-04-22 11:41 61.29819 -150.07007 2305 ft 161 kts 165°
2026-04-22 11:41 61.29109 -150.06605 2156 ft 158 kts 165°
2026-04-22 11:41 61.28064 -150.06035 1963 ft 151 kts 166°
2026-04-22 11:42 61.27067 -150.05475 1767 ft 147 kts 165°
2026-04-22 11:42 61.26070 -150.04913 1510 ft 150 kts 164°
2026-04-22 11:42 61.25059 -150.04384 1321 ft 150 kts 166°
2026-04-22 11:42 61.24052 -150.03830 1176 ft 149 kts 161°
2026-04-22 11:43 61.23068 -150.03212 962 ft 146 kts 162°
2026-04-22 11:43 61.22107 -150.02653 709 ft 141 kts 165°
2026-04-22 11:43 61.21173 -150.02125 482 ft 139 kts 163°
2026-04-22 11:43 61.20245 -150.01619 289 ft 137 kts 164°
2026-04-22 11:44 61.19348 -150.01098 163 ft 128 kts 166°
2026-04-22 11:44 61.18603 -150.00682 161 ft 86 kts 165°
2026-04-22 11:44 61.18195 -150.00453 161 ft 38 kts 165°
2026-04-22 11:44 61.17968 -150.00315 161 ft 28 kts 152°
2026-04-22 11:45 61.17838 -150.00114 161 ft 19 kts 135°
2026-04-22 11:45 61.17769 -149.99971 161 ft 10 kts 136°
2026-04-22 11:45 61.17728 -149.99893 161 ft 7 kts 140°
2026-04-22 11:45 61.17687 -149.99818 161 ft 7 kts 132°
2026-04-22 11:46 61.17668 -149.99710 161 ft 8 kts 86°
2026-04-22 11:46 61.17677 -149.99589 161 ft 10 kts 83°
2026-04-22 11:46 61.17662 -149.99477 161 ft 8 kts 129°
2026-04-22 11:46 61.17632 -149.99381 161 ft 9 kts 101°
2026-04-22 11:47 61.17644 -149.99254 161 ft 7 kts 72°
2026-04-22 11:47 61.17652 -149.99137 161 ft 9 kts 103°
2026-04-22 11:47 61.17623 -149.99071 161 ft 8 kts 156°
2026-04-22 11:47 61.17588 -149.98986 161 ft 9 kts 92°
2026-04-22 11:48 61.17583 -149.98832 161 ft 13 kts 97°
2026-04-22 11:48 61.17579 -149.98656 161 ft 11 kts 82°
2026-04-22 11:48 61.17577 -149.98518 161 ft 6 kts 104°
2026-04-22 11:48 61.17574 -149.98489 161 ft 0 kts 105°